This demonstration page uses our WeatherBlox Daily Observations layout. Learn more.

Left ArrowRight Arrow

41.86663, -103.66717

Hourly Observations for March 26, 2016

Temp ( °F °C ) Dew Point ( °F °C ) Humidity (%) Winds ( mph kmh ) Pressure ( in mb ) Visibility ( mi km ) Precip ( " mm )
12:10 am 00:10 Cloudy 28 -2 25 -4 86 86 N 18 30 30.12 1020 10 16 N/A
12:32 am 00:32 Cloudy 28 -2 25 -4 86 86 N 22 35 30.12 1020 9 14 N/A
12:53 am 00:53 Cloudy 27 -2.8 23 -5 85 85 N 21 33 30.00 1016 10 16 N/A
1:53 am 01:53 Cloudy 27 -2.8 21 -6.1 78 78 N 13 20 30.02 1017 10 16 N/A
2:15 am 02:15 Cloudy 26 -3.3 21 -6.1 81 81 N 13 20 30.15 1021 10 16 N/A
2:30 am 02:30 Cloudy 27 -3 19 -7 74 74 N 12 19 30.15 1021 10 16 N/A
2:51 am 02:51 Cloudy with Light Snow 27 -3 21 -6 80 80 N 12 19 30.15 1021 6 10 N/A
2:53 am 02:53 Cloudy with Light Snow 26 -3.3 21 -6.1 81 81 N 14 22 30.04 1017 7 11 N/A
3:06 am 03:06 Cloudy 26 -3.3 19 -7.2 75 75 N 14 22 30.15 1021 10 16 N/A
3:53 am 03:53 Cloudy 26 -3.3 19 -7.2 75 75 N 13 20 30.06 1018 10 16 N/A
4:45 am 04:45 Cloudy 25 -3.9 18 -7.8 75 75 N 12 19 30.21 1023 9 14 N/A
4:53 am 04:53 Cloudy 25 -3.9 18 -7.8 75 75 N 10 17 30.06 1018 10 16 N/A
5:15 am 05:15 Cloudy 25 -3.9 18 -7.8 75 75 N 13 20 30.21 1023 10 16 N/A
5:53 am 05:53 Cloudy 24 -4.4 18 -7.8 77 77 N 10 17 30.11 1020 8 13 N/A
6:14 am 06:14 Cloudy 25 -4 18 -8 74 74 N 12 19 30.24 1024 10 16 N/A
6:53 am 06:53 Cloudy 24 -4.4 17 -8.3 75 75 N 12 19 30.14 1021 10 16 N/A
7:53 am 07:53 Cloudy 25 -3.9 17 -8.3 72 72 N 13 20 30.18 1022 9 14 N/A
8:53 am 08:53 Cloudy 26 -3.3 17 -8.3 69 69 N 12 19 30.21 1023 10 16 N/A
9:53 am 09:53 Cloudy 29 -1.7 19 -7.2 66 66 N 12 19 30.21 1023 10 16 N/A
10:06 am 10:06 Cloudy with Light Snow 28 -2.2 18 -7.8 66 66 NNW 9 15 30.27 1025 6 10 N/A
10:22 am 10:22 Cloudy with Light Snow 28 -2 19 -7 69 69 NNW 14 22 30.27 1025 6 10 N/A
10:48 am 10:48 Cloudy with Light Snow 28 -2 19 -7 69 69 NW 13 20 30.27 1025 3 4 N/A
10:53 am 10:53 Cloudy with Light Snow 28 -2.2 20 -6.7 72 72 NW 10 17 30.22 1023 2 3 N/A
11:10 am 11:10 Cloudy with Light Snow 28 -2 21 -6 74 74 NW 13 20 30.27 1025 3 5 N/A
11:53 am 11:53 Cloudy 30 -1.1 20 -6.7 66 66 NNW 13 20 30.22 1023 10 16 N/A
12:53 pm 12:53 Cloudy 31 -0.6 20 -6.7 64 64 NW 12 19 30.21 1023 10 16 N/A
1:53 pm 13:53 Cloudy 33 0.6 19 -7.2 56 56 NNW 15 24 30.19 1022 10 16 N/A
2:12 pm 14:12 Cloudy 34 1 19 -7 56 56 N 16 26 30.21 1023 10 16 N/A
2:53 pm 14:53 Mostly Cloudy 37 2.8 19 -7.2 48 48 NNW 20 31 30.15 1021 10 16 N/A
3:53 pm 15:53 Sunny 38 3.3 19 -7.2 46 46 NW 10 17 30.15 1021 10 16 N/A
4:53 pm 16:53 Sunny 39 3.9 18 -7.8 43 43 NW 12 19 30.15 1021 10 16 N/A
5:53 pm 17:53 Sunny 39 3.9 17 -8.3 41 41 NNW 7 11 30.16 1021 10 16 N/A
6:53 pm 18:53 Sunny 36 2.2 17 -8.3 46 46 N 7 11 30.18 1022 10 16 N/A
7:53 pm 19:53 Clear 27 -2.8 14 -10 58 58 NE 6 9 30.22 1023 10 16 N/A
8:53 pm 20:53 Clear 23 -5 13 -10.6 65 65 E 5 7 30.24 1024 10 16 N/A
9:53 pm 21:53 Clear 20 -6.7 13 -10.6 74 74 E 6 9 30.25 1024 10 16 N/A
10:53 pm 22:53 Clear 22 -5.6 15 -9.4 75 75 E 5 7 30.24 1024 10 16 N/A
11:53 pm 23:53 Clear 20 -6.7 13 -10.6 74 74 E 5 7 30.24 1024 10 16 N/A

Powered by AerisWeather